SCP
0 0 0 0 0 0 0 0 0 0 0 0 0 0 0 0 0 0 0 0 0 0 0 0 0 0 0 0 0 0 0 0 0 0 0 0 0 0 0 0 0 0 0
0 0 0 0 0 0 0 0 0 0 0 0 0 0 0 0 0 0 0 0 0 0 0 0 0 0 0 0 0 0 0 0 0 0 0 0 0 0 0 0 0 0 0
0 0 0 0 0 0 0 0 0 0 0 0 0 0 0 0 0 0 0 0 0 0 0 0 0 0 0 0 0 0 0 0 0 0 0 0 0 0 0 0 0 0 0
0 0 0 0 0 0 0 0 0 0 0 0 0 0 0 0 0 0 0 0 0 0 0 0 0 0 0 0 0 0 0 0 0 0 0 0 0 0 0 0 0 0 0
0 0 0 0 0 0 0 0 0 0 0 0 0 0 0 0 0 0 0 0 0 0 0 0 0 0 0 0 0 0 0 0 0 0 0 0 0 0 0 0 0 0 0
0 0 0 0 0 0 0 0 0 0 0 0 0 0 0 0 0 0 0 0 0 0 0 0 0 0 0 0 0 0 0 0 0 0 0 0 0 0 0 0 0 0 0
0 0 0 0 0 0 0 0 0 0 0 0 0 0 0 0 0 0 0 0 0 0 0 0 0 0 0 0 0 0 0 0 0 0 0 0 0 0 0 0 0 0 0
0 0 0 0 0 0 0 0 0 0 0 0 0 0 0 0 0 0 0 0 0 0 0 0 0 0 0 0 0 0 0 0 0 0 0 0 0 0 0 0 0 0 0
0 0 0 0 0 0 0 0 0 0 0 0 0 0 0 0 0 0 0 0 0 0 0 0 0 0 0 0 0 0 0 0 0 0 0 0 0 0 0 0 0 0 0
0 0 0 0 0 0 0 0 0 0 0 0 0 0 0 0 0 0 0 0 0 0 0 0 0 0 0 0 0 0 0 0 0 0 0 0 0 0 0 0 0 0 0
1 1 0 0 0 0 0 0 0 0 0 0 0 0 0 0 0 0 0 0 0 0 0 0 0 0 0 0 0 0 0 0 0 0 0 0 0 0 0 0 0 0 0
1 1 0 0 0 0 0 0 0 0 0 0 0 0 0 0 0 0 0 0 0 0 0 0 0 0 0 0 0 0 0 0 0 0 0 0 0 0 0 0 0 0 0
1 1 1 0 0 0 0 0 0 0 0 0 0 0 0 0 0 0 0 0 0 0 0 0 0 0 0 0 0 0 0 0 0 0 0 0 0 0 0 0 0 0 0
1 1 1 1 1 1 0 0 0 0 0 0 0 0 0 0 0 0 0 0 0 0 0 0 0 0 0 0 0 0 0 0 0 0 0 0 0 0 0 0 0 0 0
1 1 1 1 1 1 1 1 0 0 0 0 0 0 0 0 0 0 0 0 0 0 0 0 0 0 0 0 0 0 0 0 0 0 0 0 0 0 0 0 0 0 0
1 1 1 1 1 1 1 1 0 0 0 0 0 0 0 0 0 0 0 0 0 0 0 0 0 0 0 0 0 0 0 0 0 0 0 0 0 0 0 0 0 0 0
1 1 1 1 1 1 1 1 1 0 0 0 0 0 0 0 0 0 0 0 0 0 0 0 0 0 0 0 0 0 0 0 0 0 0 0 0 0 0 0 0 0 0
1 1 1 1 0 0 1 1 1 0 0 0 0 0 0 0 0 0 0 0 0 0 0 0 0 0 0 0 0 0 0 0 0 0 0 0 0 0 0 0 0 0 0
1 1 1 1 0 0 1 1 0 0 0 0 0 0 0 0 0 0 0 0 0 0 0 0 0 0 0 0 0 0 0 0 0 0 0 0 0 0 0 0 0 0 0
1 1 1 1 0 0 0 0 0 0 0 0 0 0 0 0 0 0 0 0 0 0 0 0 0 0 0 0 0 0 0 0 0 0 0 0 0 0 0 0 0 0 0
1 1 1 1 0 0 0 0 0 0 0 0 0 0 0 0 0 0 0 0 0 0 0 0 0 0 0 0 0 0 0 0 0 0 0 0 0 0 0 0 0 0 0
1 1 0 0 0 0 0 0 0 0 0 0 0 0 0 0 0 0 0 0 0 0 0 0 0 0 0 0 0 0 0 0 0 0 0 0 0 0 0 0 0 0 0
1 1 0 0 0 0 0 0 0 0 0 0 0 0 0 0 0 0 0 0 0 0 0 0 0 0 0 0 0 0 0 0 0 0 0 0 0 0 0 0 0 0 0
1 0 0 0 0 0 0 0 0 0 0 0 0 0 0 0 0 0 0 0 0 0 0 0 0 0 0 0 0 0 0 0 0 0 0 0 0 0 0 0 0 0 0
0 0 0 0 0 0 0 0 0 0 0 0 0 0 0 0 0 0 0 0 0 0 0 0 0 0 0 0 0 0 0 0 0 0 0 0 0 0 0 0 0 0 0
0 0 0 0 0 0 0 0 0 0 0 0 0 0 0 0 0 0 0 0 0 0 0 0 0 0 0 0 0 0 0 0 0 0 0 0 0 0 0 0 0 0 0
Wind_Speed
14 16 17 14 13 14 14 14 15 15 15 15 14 14 13 12 11 11 10 10 10 10 10 10 10 10 11 11 12 13 13 13 13 14 14 15 14 14 13 12 12 14 16
17 18 18 15 14 14 14 15 15 15 15 15 14 13 12 12 11 10 10 10 10 10 10 10 11 12 12 12 13 13 13 12 13 14 14 15 14 13 12 10 11 12 15
19 19 18 15 15 15 14 15 15 15 15 14 14 13 12 11 11 10 10 10 10 10 10 11 12 12 12 13 13 12 12 12 12 11 11 12 13 12 12 14 15 14 14
19 19 17 17 16 15 15 14 14 14 14 14 13 13 12 11 10 10 10 10 10 10 11 12 12 12 12 12 12 12 13 12 10 8 7 10 12 13 13 13 14 14 14
18 17 18 19 17 16 15 14 14 14 14 14 13 12 11 11 10 10 10 10 10 11 11 12 12 12 12 12 12 12 12 10 6 4 9 10 11 12 13 13 13 13 13
18 18 20 19 18 17 16 14 14 14 14 13 12 11 11 10 10 10 10 10 10 11 11 11 12 11 11 12 12 12 11 8 7 8 9 9 10 11 12 12 12 13 12
17 17 20 19 18 17 16 15 14 14 13 12 12 11 10 10 10 10 10 10 10 11 11 11 11 11 11 11 11 11 9 5 4 8 8 9 11 11 12 12 12 12 12
16 17 18 18 18 17 16 15 14 14 13 12 12 11 10 10 10 10 10 11 10 10 11 11 11 10 10 10 10 10 7 5 7 8 8 10 11 10 11 11 11 11 11
15 16 17 17 16 16 15 14 14 13 12 12 11 11 10 10 10 11 10 10 10 10 10 10 10 10 10 10 10 9 6 3 5 6 8 9 10 10 10 10 10 11 11
13 14 15 15 15 14 14 14 13 13 12 11 11 11 11 11 11 10 11 10 10 10 10 9 9 9 9 9 9 8 7 6 5 7 6 10 9 9 10 10 10 10 10
12 12 14 14 13 13 12 13 12 12 11 11 10 10 9 8 10 9 10 10 10 10 10 9 9 9 9 9 8 8 7 3 5 5 6 11 9 9 9 9 9 9 9
14 13 11 12 13 12 10 11 8 8 9 8 8 9 6 5 5 7 11 9 10 10 10 9 8 9 8 8 9 9 4 4 4 5 8 10 8 8 8 8 9 8 8
15 13 12 11 11 11 8 8 6 5 6 6 7 7 5 5 5 6 6 7 8 9 8 9 9 6 4 3 3 4 2 3 2 4 9 9 7 7 8 8 8 8 8
15 14 12 12 10 10 8 7 7 6 6 5 7 7 6 4 4 5 3 5 5 4 4 5 3 3 3 4 3 3 4 2 3 4 8 9 7 7 7 8 8 8 7
14 14 13 12 10 9 8 7 7 6 6 6 6 5 5 5 4 5 3 3 4 4 5 4 4 4 3 4 4 4 3 3 3 4 7 9 7 7 7 8 8 8 8
14 14 13 12 11 10 8 7 6 6 5 6 6 7 6 4 4 4 5 4 3 3 3 3 4 4 4 3 3 3 3 4 4 3 5 8 8 7 7 7 7 7 7
13 13 13 12 12 11 10 9 6 6 6 5 5 6 6 5 5 4 4 4 3 3 4 4 4 4 4 4 3 3 3 2 4 3 3 4 8 9 8 7 7 7 7
13 13 13 11 12 11 9 8 6 6 6 5 5 6 7 5 5 4 4 4 4 4 4 3 4 4 3 3 3 3 3 3 4 4 4 4 3 5 9 9 7 7 8
13 13 13 12 11 10 9 7 6 6 5 5 5 5 6 6 6 5 3 3 4 4 4 4 4 3 4 3 3 3 3 3 4 4 4 5 4 4 5 9 9 8 9
12 13 12 12 11 10 8 6 5 6 6 6 5 5 6 6 6 5 4 4 5 4 4 3 3 2 2 3 3 3 3 3 3 3 4 5 5 6 6 5 7 9 10
12 12 12 12 12 10 7 7 7 7 6 6 6 7 7 7 7 5 4 5 5 4 4 5 5 5 4 3 3 3 3 4 3 3 3 3 5 5 5 5 5 4 6
12 12 12 12 12 11 8 6 5 5 5 5 5 6 7 8 8 7 5 5 5 4 5 5 4 3 4 4 3 3 3 4 4 4 4 4 4 4 5 7 5 5 5
12 12 11 12 12 11 10 7 6 4 4 5 6 6 7 8 8 6 7 6 5 6 5 6 6 6 4 4 3 3 3 2 3 4 4 4 4 4 5 4 6 6 6
12 11 11 11 11 11 11 10 10 8 7 7 6 6 7 8 8 8 7 6 6 5 5 6 5 4 5 4 4 3 3 3 3 2 5 5 5 5 4 4 5 5 6
11 11 10 11 10 11 10 10 9 8 7 6 6 7 7 7 8 8 8 7 6 5 5 4 4 5 5 5 4 4 4 3 5 3 2 3 4 5 4 5 4 4 5
10 10 10 11 11 11 11 10 10 9 8 8 8 8 8 6 7 8 8 7 7 5 6 6 5 6 4 4 4 4 4 4 4 3 3 3 3 3 3 3 4 4 4
Wind_Direction
151 141 142 143 138 134 132 133 134 137 137 136 135 133 131 128 124 120 117 112 107 105 104 105 106 110 113 111 111 110 109 109 109 108 107 105 105 105 106 113 117 104 105
145 140 145 146 141 136 133 132 133 135 136 135 135 134 132 129 125 121 117 112 108 105 104 104 105 108 111 112 112 112 110 110 110 112 114 110 104 103 102 94 84 100 110
144 141 149 146 142 138 134 133 134 135 136 135 134 133 131 129 125 121 118 114 110 108 107 107 107 109 111 113 113 112 111 110 112 121 135 117 108 105 101 97 99 107 109
145 146 149 144 143 139 137 135 135 135 135 135 134 133 132 129 126 124 120 116 113 111 110 111 111 112 113 112 111 110 108 109 120 158 129 108 110 107 108 107 108 109 109
145 145 140 148 145 142 140 138 139 138 137 137 136 135 134 132 129 126 121 118 114 112 112 113 113 114 113 111 110 110 110 114 145 159 97 98 101 110 110 110 110 109 109
147 147 143 151 147 145 144 144 144 141 140 139 138 137 135 132 129 125 122 120 116 115 114 115 115 116 116 114 113 113 115 139 182 103 102 107 107 113 113 112 111 109 111
153 148 145 152 149 148 147 148 146 144 143 141 138 137 134 131 129 124 120 119 116 115 116 118 117 119 119 118 117 117 124 171 118 106 108 103 102 113 114 113 111 110 110
153 147 144 151 151 150 151 151 149 147 145 143 141 139 135 129 125 122 121 120 118 117 118 121 121 121 120 120 121 121 137 208 123 110 107 103 106 117 115 115 114 113 113
155 149 150 156 155 154 154 153 151 148 145 144 142 138 134 131 126 122 121 121 120 119 119 121 123 123 122 124 124 125 135 277 127 117 114 105 116 120 120 120 118 116 116
158 155 155 161 157 160 157 155 152 150 147 144 142 139 137 134 130 130 134 122 121 122 123 124 124 124 125 126 127 130 152 221 127 127 115 112 124 125 124 124 123 121 119
162 161 162 160 160 161 156 150 157 153 149 150 148 144 158 157 142 150 117 124 126 126 125 124 124 128 137 136 137 150 185 176 118 105 96 112 134 133 131 130 129 128 125
167 167 164 160 161 161 156 151 162 163 157 169 156 158 164 141 139 124 119 128 129 128 130 125 128 157 191 154 150 185 184 143 136 125 108 126 141 142 141 138 138 138 134
166 167 167 165 165 163 156 156 160 158 157 166 157 158 152 153 149 139 144 144 147 158 153 145 174 183 166 114 149 153 135 150 125 120 118 140 149 150 149 148 147 145 143
168 169 170 165 163 164 161 159 162 161 162 164 158 170 160 161 159 141 154 150 160 155 147 163 162 150 148 151 149 130 156 177 139 117 123 148 156 159 160 159 159 157 156
172 171 170 166 164 163 164 171 166 162 162 160 160 167 170 166 164 150 144 155 167 150 161 168 160 152 166 174 173 154 156 131 131 133 127 151 165 170 171 173 174 174 174
176 171 169 169 167 169 171 174 166 163 162 163 168 163 180 170 159 163 160 166 164 170 152 167 155 166 184 165 171 153 167 152 142 161 142 152 170 179 182 181 183 185 186
175 171 170 172 172 177 178 175 170 166 166 170 160 163 178 182 163 176 163 176 166 157 155 183 165 179 184 172 169 167 167 173 152 170 163 161 165 177 189 194 196 196 197
175 173 176 175 174 178 177 175 167 169 165 169 168 172 180 178 174 188 176 174 164 176 179 174 197 185 181 181 171 189 166 164 171 180 180 183 177 169 179 190 200 202 206
175 173 176 175 175 178 175 170 168 168 173 176 179 181 178 184 185 196 187 156 187 185 187 200 170 205 184 183 180 176 188 184 178 187 183 187 180 188 180 168 190 202 211
174 173 175 175 176 175 171 167 168 171 180 184 185 184 183 189 191 199 187 180 203 193 189 202 164 207 213 197 221 158 194 186 203 186 203 185 188 198 199 187 190 195 205
174 172 173 177 175 173 172 175 173 178 183 182 186 185 190 197 189 201 199 177 211 199 202 197 196 183 202 197 209 195 194 202 203 198 216 208 196 203 195 197 218 213 190
176 176 178 179 176 177 176 178 175 173 185 182 186 183 195 199 196 193 201 200 197 192 202 209 213 218 193 193 228 213 203 188 204 198 197 209 212 202 206 203 205 210 241
180 184 184 181 179 180 173 173 168 165 180 182 189 190 198 200 200 203 197 211 196 209 193 206 206 217 211 193 227 255 259 222 185 175 199 202 210 217 220 210 216 206 219
184 184 180 177 179 178 177 182 181 184 192 193 189 187 190 196 197 197 198 202 208 213 189 206 201 219 227 214 191 243 288 338 285 181 188 186 195 214 229 230 216 205 218
181 177 174 175 178 179 183 183 189 198 199 190 188 185 192 189 195 197 197 199 202 212 197 208 187 224 221 231 218 212 213 219 253 270 215 195 195 200 200 219 230 223 214
177 173 173 175 178 180 183 188 196 199 197 191 191 186 193 187 193 196 196 196 200 202 194 202 202 204 231 238 248 234 223 221 231 239 238 224 215 200 204 218 227 221 219